METEOSAT-11 (MSG-4) (40732 NORAD) Tracking and Keplerian Element Data

This shows tracking and keplerian element data for the satellite.

Feedback or suggestion? Click here.




ElementValue
Catalog40732
NameMETEOSAT-11 (MSG-4)
Epoch Orbit2272
Epoch Day268.68695736
Epoch Year2021
RAAN116.6648
Inclination0.3184
Eccentricity0.0001499
Argument of Perigee6.5984
Mean Anonmoly129.4844
Mean Motion1.0026127
Decay Rate-2E-08
L11 40732U 15034A 21268.68695736 -.00000002 00000-0 00000-0 0 9991
L22 40732 0.3184 116.6648 0001499 6.5984 129.4844 1.00261270 22725

Live tracking and technical data element details for METEOSAT-11 (MSG-4) (NORAD 40732). METEOSAT-11 (MSG-4) can be tracked NOW for your location showing map with azimuth and elevation plus other details from your city location.

Track the satellite on the map from your city or location and see movement details for azimuth, elevation, latitude, longitude, range, height, and movement on the map or in text.







IsCatalogInMostPopularTable: catalog: 40732, numindb: 555
Update: records affected: 1



GetName: 40732 METEOSAT-11 (MSG-4)

Hit Count: updated at: Mon, 27 Sep 2021 01:16:49 GMT